Regional Weather Roundup
Issued by NWS

Home | Current Version | Previous Version | Text Only | Print | Product List | Glossary On
Versions: 1 2 3 4 5 6 7 8 9 10 11 12 13 14 15 16 17 18 19 20 21 22 23 24 25 26 27 28 29 30 31 32 33 34 35 36 37 38 39 40 41 42 43 44 45 46 47 48 49 50
000
ASUS43 KLSX 240607
RWRMO

WEATHER SUMMARY FOR MISSOURI
NATIONAL WEATHER SERVICE SPRINGFIELD MO
100 AM CDT SUN MAY 24 2015

NOTE: "FAIR" INDICATES FEW OR NO CLOUDS BELOW 12,000 FEET WITH NO
       SIGNIFICANT WEATHER AND/OR OBSTRUCTIONS TO VISIBILITY.
       CURRENT SKY AND/OR WEATHER CONDITIONS ARE NOT AVAILABLE FOR
       CHILLICOTHE AND FARMINGTON.

MOZ001>031-035>038-043-044-053-054-240700-
...NORTHERN AND WESTERN MISSOURI...

CITY           SKY/WX    TMP DP  RH WIND       PRES   REMARKS
KANSAS CTY INT HVY RAIN  61  60  97 SE16      30.01F FOG
6HR MIN TEMP:  61; 6HR MAX TEMP:  65; 6HR PCP:  1.48;

KANSAS C DTWN  HVY RAIN  63  60  90 E9        30.00F FOG
6HR MIN TEMP:  62; 6HR MAX TEMP:  67; 6HR PCP:  1.30;

LEE`S SUMMIT   RAIN      62  60  93 E15       30.01F
6HR MIN TEMP:  61; 6HR MAX TEMP:  66; 6HR PCP:  1.07;

ST JOSEPH      RAIN      61  59  93 SE17G25   30.00S FOG
6HR MIN TEMP:  61; 6HR MAX TEMP:  67; 6HR PCP:  0.85;

CHILLICOTHE      N/A     62  59  90 SE7       30.09F
6HR MIN TEMP:  62; 6HR MAX TEMP:  70; 6HR PCP:  0.28;

KIRKSVILLE     RAIN      61  57  87 S12G25    30.13R FOG
6HR MIN TEMP:  61; 6HR MAX TEMP:  70; 6HR PCP:  0.01;


$$
MOZ066>068-077>081-088>096-101>105-240700-
...SOUTHWEST MISSOURI...

CITY           SKY/WX    TMP DP  RH WIND       PRES   REMARKS
SPRINGFIELD    CLOUDY    68  58  70 SE18G28   30.01F
6HR MIN TEMP:  67; 6HR MAX TEMP:  71; 6HR PCP:  0.01;

JOPLIN         LGT RAIN  66  64  93 SE10      29.94F
6HR MIN TEMP:  66; 6HR MAX TEMP:  68; 6HR PCP:  0.23;


$$
MOZ032>034-039>042-045>050-055>058-069>072-240700-
...CENTRAL MISSOURI...

CITY           SKY/WX    TMP DP  RH WIND       PRES   REMARKS
COLUMBIA       RAIN      64  55  72 NE6       30.09S
6HR MIN TEMP:  64; 6HR MAX TEMP:  69; 6HR PCP: TRACE;

JEFFERSON CITY CLOUDY    67  52  58 E8        30.08S
6HR MIN TEMP:  67; 6HR MAX TEMP:  71;

ROLLA          CLOUDY    63  53  70 SE10      30.08F
6HR MIN TEMP:  63; 6HR MAX TEMP:  68;

SEDALIA        RAIN      61  58  90 E12       30.06F
6HR MIN TEMP:  61; 6HR MAX TEMP:  67; 6HR PCP:  0.26;

WHITEMAN AFB   LGT RAIN  62  59  93 E8        30.03F
WARRENSBURG    LGT RAIN  61  59  94 E9        30.02F
OSAGE BEACH    CLOUDY    66  54  63 SE8       30.06F

$$
MOZ051-052-059>065-240700-
...EAST CENTRAL MISSOURI...

CITY           SKY/WX    TMP DP  RH WIND       PRES   REMARKS
ST LOUIS INTL  CLOUDY    68  53  58 E8        30.13F
6HR MIN TEMP:  68; 6HR MAX TEMP:  76;

SPIRIT OF STL  CLOUDY    67  53  61 SE3       30.11S
6HR MIN TEMP:  62; 6HR MAX TEMP:  74;

ST CHARLES     CLOUDY    66  54  65 E8        30.12S
6HR MIN TEMP:  65; 6HR MAX TEMP:  75;


$$
MOZ072>076-082>087-097>100-106>115-240700-
...SOUTH CENTRAL AND SOUTHEAST MISSOURI...

CITY           SKY/WX    TMP DP  RH WIND       PRES   REMARKS
CAPE GIRARDEAU PTCLDY    65  56  72 SE6       30.14S
6HR MIN TEMP:  63; 6HR MAX TEMP:  73;

FARMINGTON     MOCLDY    64  54  68 S8        30.17S
6HR MIN TEMP:  63; 6HR MAX TEMP:  72;

POPLAR BLUFF   PTCLDY    67  58  72 E5        30.11S
6HR MIN TEMP:  65; 6HR MAX TEMP:  76;

WEST PLAINS    CLOUDY    66  53  63 SE6       30.12S
6HR MIN TEMP:  64; 6HR MAX TEMP:  70;


$$



USA.gov is the U.S. government's official web portal to all federal, state and local government web resources and services.